Location: P�rn�nmaa
(61.1833°N, 23.0000°E)
Time: 19:48:03
(UTC+00:00)

COSMO-SKYMED 1 - Pass Details

Date: 08 December 2019
Orbit: 621 x 623 km, 97.9° (Epoch: 17 January)

Event Time Altitude Azimuth Distance (km) Brightness Sun altitude
Exits shadow 15:16:15 13° 100° (E) 1,816 4.5 -12.5°
Drops below altitude 10° 15:17:23 10° 115° (ESE) 2,000 4.8 -12.6°
Sets 15:20:34 0° 141° (SE) 2,900 5.8 -13.0°
